Terminal Aerodrome Forecast
Issued by NWS Twin Cities, MN

Home | Current Version | Previous Version | Graphics & Text | Print | Product List | Glossary On
Versions: 1 2 3 4 5 6 7 8 9 10 11 12 13 14 15 16
000
FTUS43 KMPX 201739
TAFSTC
TAF
KSTC 201739Z 2018/2118 34010G18KT P6SM OVC015
     FM202100 34010KT P6SM OVC025
     FM210000 33005KT P6SM BKN035
     FM210500 33005KT P6SM SCT030
     FM211400 33004KT P6SM SKC=

USA.gov is the U.S. government's official web portal to all federal, state and local government web resources and services.